Location: Colebrook
(42.0017°N, 73.0973°W)
Time: 12:38:50
(UTC-05:00)

Amateur Radio Satellites - All Passes

Search period start: 31 January 2015 12:08
Search period end: 01 February 2015 12:08
Location: Colebrook, 42.0017°N, 73.0973°W

Satellite Date Start Highest point End Downlink Frequencies (MHz)
Time Altitude Azimuth
VELOX 1 31 Jan 12:09:40 12:12:04 14° 297° (WNW) 12:14:16 145.980
CUBEBUG 1 31 Jan 12:09:47 12:13:37 28° 291° (WNW) 12:17:23 437.445
TISAT 1 31 Jan 12:14:46 12:19:06 85° 103° (ESE) 12:23:23 437.305
BEESAT 31 Jan 12:22:38 12:25:26 16° 90° (E) 12:28:25 436.000
ITUPSAT 1 31 Jan 12:27:46 12:30:52 18° 91° (E) 12:34:09 437.325
PHONESAT 2.4 31 Jan 12:41:17 12:44:30 29° 203° (SSW) 12:47:42 2401.200-2431.200
Gurwin Techsat 1B 31 Jan 12:46:09 12:50:40 30° 67° (ENE) 12:55:18 435.225
Oscar 19 31 Jan 12:52:58 12:58:07 61° 259° (W) 13:03:17 437.125/150
PCSat 31 Jan 12:54:45 13:00:13 85° 239° (WSW) 13:05:38 145.827
HORYU 2 31 Jan 12:58:08 12:58:54 11° 61° (ENE) 12:59:56 437.375
VERMONT LUNAR 31 Jan 13:07:47 13:09:31 13° 211° (SSW) 13:11:11 437.305
ITAMSAT 1 31 Jan 13:14:10 13:19:19 78° 76° (ENE) 13:24:33 435.822/435.867
SPROUT 31 Jan 13:22:30 13:25:37 19° 294° (WNW) 13:28:37 437.525
GONETS M04 31 Jan 13:25:14 13:32:57 36° 274° (W) 13:40:29
AO-7 31 Jan 13:25:51 13:32:13 26° 55° (NE) 13:38:50 29.400- 29.500
KKS-1 31 Jan 13:42:06 13:45:22 20° 92° (E) 13:48:44 437.445
SWISSCUBE 31 Jan 13:43:37 13:48:24 74° 286° (WNW) 13:53:11 437.505
BEESAT 31 Jan 13:59:02 14:03:43 56° 288° (WNW) 14:08:23 436.000
DANDE 31 Jan 14:02:38 14:08:22 32° 65° (ENE) 14:12:52 436.750
ITUPSAT 1 31 Jan 14:04:28 14:09:08 51° 288° (WNW) 14:13:45 437.325
RS-15 31 Jan 14:18:27 14:29:33 58° 246° (WSW) 14:41:01 29.354- 29.394
CUSAT 1 31 Jan 14:18:59 14:24:52 50° 73° (ENE) 14:29:14 437.405
Gurwin Techsat 1B 31 Jan 14:25:43 14:30:35 35° 264° (W) 14:35:26 435.225
O/OREOS (USA 219) 31 Jan 14:26:03 14:28:32 15° 100° (E) 14:31:13 437.305
HORYU 2 31 Jan 14:30:28 14:34:59 87° 256° (WSW) 14:39:30 437.375
PCSat 31 Jan 14:41:19 14:42:54 11° 257° (WSW) 14:44:08 145.827
ITAMSAT 1 31 Jan 14:57:10 14:59:33 13° 273° (W) 15:01:39 435.822/435.867
M-CUBED/EXP-1 PRIME 31 Jan 14:57:49 15:00:32 23° 101° (ESE) 15:03:23 437.505
STARS 31 Jan 15:05:54 15:10:23 78° 285° (WNW) 15:14:48 437.465
AO-7 31 Jan 15:15:54 15:24:17 79° 254° (WSW) 15:32:43 29.400- 29.500
KKS-1 31 Jan 15:18:01 15:22:13 39° 289° (WNW) 15:26:21 437.445
AUBIESAT-1 31 Jan 15:28:31 15:31:48 52° 106° (ESE) 15:35:12 437.475
MOZHAYETS 4 31 Jan 15:38:58 15:41:30 15° 89° (E) 15:44:15
JAS-2 31 Jan 15:39:35 15:44:59 74° 75° (ENE) 15:50:11 435.910
Cubesat XI-IV 31 Jan 15:40:11 15:41:55 12° 58° (ENE) 15:43:56 437.490
DANDE 31 Jan 15:46:14 15:51:50 33° 273° (W) 15:56:04 436.750
CUTE-I 31 Jan 15:57:44 16:00:58 17° 62° (ENE) 16:04:24 437.470
O/OREOS (USA 219) 31 Jan 16:03:09 16:07:33 52° 296° (WNW) 16:12:00 437.305
CUSAT 1 31 Jan 16:03:17 16:07:05 18° 279° (W) 16:10:06 437.405
M-CUBED/EXP-1 PRIME 31 Jan 16:33:00 16:35:30 19° 296° (WNW) 16:37:59 437.505
RS-15 31 Jan 16:37:27 16:40:00 10° 263° (W) 16:41:14 29.354- 29.394
AO-7 31 Jan 17:13:50 17:18:35 15° 274° (W) 17:22:45 29.400- 29.500
MOZHAYETS 4 31 Jan 17:14:41 17:19:10 54° 286° (WNW) 17:23:36
Cubesat XI-IV 31 Jan 17:15:57 17:21:16 82° 76° (ENE) 17:26:39 437.490
JAS-2 31 Jan 17:28:25 17:30:49 12° 272° (W) 17:32:53 435.910
CUTE-I 31 Jan 17:35:14 17:40:32 69° 257° (WSW) 17:45:54 437.470
CUBESAT XI-V 31 Jan 17:37:50 17:41:20 21° 92° (E) 17:44:57 437.345
SO-50 31 Jan 17:41:54 17:46:36 43° 50° (NE) 17:51:19 436.795
PRISM 31 Jan 18:12:08 18:16:16 62° 101° (E) 18:20:24 437.425
HO-68 31 Jan 18:19:13 18:24:26 23° 58° (ENE) 18:29:53 435.675
YUBILEINY 31 Jan 18:26:39 18:34:35 43° 88° (E) 18:42:40 435.215
GOMX 1 31 Jan 18:29:01 18:31:33 14° 60° (ENE) 18:34:23 467.674
DOVE 4 31 Jan 18:31:20 18:31:43 10° 58° (ENE) 18:32:24 437.250
BRITE-PL 31 Jan 18:44:54 18:49:08 27° 66° (ENE) 18:53:43 437.365/2234.400
STRAND 1 31 Jan 18:45:36 18:50:45 67° 102° (ESE) 18:55:53 437.568
CANX-2 31 Jan 18:51:33 18:54:28 19° 67° (ENE) 18:57:31 2200.000
AAUSAT CUBESAT 2 31 Jan 18:55:26 18:56:43 11° 64° (ENE) 18:58:13 437.432
Cubesat XI-IV 31 Jan 18:59:48 19:02:10 12° 273° (W) 19:04:12 437.490
CUTE 1.7 + AOD 2 31 Jan 19:14:27 19:18:08 29° 70° (ENE) 19:21:52 437.475
CUBESAT XI-V 31 Jan 19:14:34 19:19:00 41° 288° (WNW) 19:23:23 437.345
SO-50 31 Jan 19:22:52 19:27:00 26° 247° (WSW) 19:31:02 436.795
Oscar 11 31 Jan 19:27:04 19:29:05 13° 64° (ENE) 19:31:18 145.826/435.025
CINEMA 3 31 Jan 19:32:17 19:35:59 22° 66° (ENE) 19:39:52 145.822/145.860
SEEDS 31 Jan 19:40:54 19:44:59 48° 73° (ENE) 19:49:06 437.485
PRISM 31 Jan 19:49:31 19:51:21 12° 297° (WNW) 19:53:00 437.425
UKube-1 31 Jan 20:02:51 20:05:52 19° 66° (ENE) 20:08:59 .
COMPASS 1 31 Jan 20:03:27 20:07:39 72° 76° (ENE) 20:11:52 437.405
DOVE 4 31 Jan 20:03:29 20:08:34 71° 75° (ENE) 20:13:53 437.250
GOMX 1 31 Jan 20:03:47 20:08:55 86° 255° (WSW) 20:14:25 467.674
HO-68 31 Jan 20:04:24 20:11:33 75° 256° (WSW) 20:18:44 435.675
DELFI C3 31 Jan 20:08:25 20:11:51 27° 70° (ENE) 20:15:20 145.870
ZACube-1 31 Jan 20:22:04 20:25:52 26° 68° (ENE) 20:29:44 437.345
BRITE-PL 31 Jan 20:22:32 20:27:25 42° 264° (W) 20:32:37 437.365/2234.400
YUBILEINY 31 Jan 20:23:18 20:31:28 42° 288° (WNW) 20:39:36 435.215
ISS 31 Jan 20:23:34 20:26:38 38° 139° (SE) 20:29:43 145.825
CUBEBUG 2 31 Jan 20:25:35 20:30:02 41° 71° (ENE) 20:34:32 437.445
DX 1 31 Jan 20:25:52 20:29:46 34° 70° (ENE) 20:33:44 434.975-435.025
CANX-2 31 Jan 20:26:07 20:30:11 40° 262° (W) 20:34:14 2200.000
STRAND 1 31 Jan 20:26:11 20:29:28 17° 298° (WNW) 20:32:34 437.568
AAUSAT CUBESAT 2 31 Jan 20:27:42 20:31:54 69° 260° (W) 20:36:06 437.432
FUNcube-1 31 Jan 20:32:45 20:36:51 33° 70° (ENE) 20:41:00 145.935
CUTE 1.7 + AOD 2 31 Jan 20:50:31 20:54:06 25° 266° (W) 20:57:36 437.475
50 SAT 31 Jan 20:51:37 20:54:39 21° 68° (ENE) 20:57:48 437.505
UWE-3 31 Jan 20:59:37 21:04:18 76° 75° (ENE) 21:09:02 435.000/436.395/437.385
Oscar 11 31 Jan 21:00:32 21:04:50 62° 259° (W) 21:09:10 145.826/435.025
AISAT 31 Jan 21:03:14 21:07:11 33° 70° (ENE) 21:11:14 437.250
CINEMA 3 31 Jan 21:08:06 21:12:53 47° 262° (W) 21:17:46 145.822/145.860
ESTCUBE 1 31 Jan 21:15:40 21:18:50 20° 66° (ENE) 21:22:10 437.505/2401.250
SEEDS 31 Jan 21:18:37 21:21:09 15° 270° (W) 21:23:30 437.485
TIGRISAT 31 Jan 21:18:38 21:19:22 10° 86° (E) 21:20:23 435.000
VELOX 1 31 Jan 21:29:34 21:33:55 60° 73° (ENE) 21:38:21 145.980
CUBEBUG 1 31 Jan 21:30:29 21:34:01 25° 68° (ENE) 21:37:39 437.445
UKube-1 31 Jan 21:37:40 21:41:46 41° 261° (W) 21:45:53 .
POLYITAN 1 31 Jan 21:38:02 21:38:26 10° 87° (E) 21:39:08 437.675
HUMSAT D 31 Jan 21:39:00 21:43:22 88° 256° (WSW) 21:47:45 437.325/437.525
DELFI C3 31 Jan 21:43:44 21:47:06 24° 266° (W) 21:50:24 145.870
DOVE 4 31 Jan 21:44:05 21:47:00 15° 274° (W) 21:49:42 437.250
GOMX 1 31 Jan 21:46:57 21:48:03 10° 277° (W) 21:48:47 467.674
AIST 1 31 Jan 21:49:45 21:54:07 72° 81° (E) 21:58:29
POPSAT HIP 1 31 Jan 21:54:35 21:57:14 16° 91° (E) 22:00:02 437.405
DUCHIFAT 1 31 Jan 21:55:33 21:58:13 16° 91° (E) 22:01:02 145.980
HO-68 31 Jan 21:57:53 22:00:40 12° 276° (W) 22:02:53 435.675
ZACube-1 31 Jan 21:57:59 22:02:09 32° 265° (W) 22:06:16 437.345
ISS 31 Jan 22:00:11 22:03:09 31° 336° (NNW) 22:06:09 145.825
DX 1 31 Jan 22:02:40 22:06:08 22° 266° (W) 22:09:31 434.975-435.025
CUBEBUG 2 31 Jan 22:03:09 22:06:54 22° 268° (W) 22:10:34 437.445
FUNcube-1 31 Jan 22:09:24 22:13:15 25° 267° (W) 22:17:02 145.935
UNISAT 6 31 Jan 22:10:11 22:14:23 41° 98° (E) 22:18:29 437.425
50 SAT 31 Jan 22:25:49 22:29:36 33° 263° (W) 22:33:22 437.505
NANOSAT C BR1 31 Jan 22:29:47 22:33:50 39° 98° (E) 22:37:52 145.865
UWE-3 31 Jan 22:39:54 22:41:29 11° 274° (W) 22:42:47 435.000/436.395/437.385
AISAT 31 Jan 22:40:14 22:43:54 24° 266° (W) 22:47:30 437.250
SPROUT 31 Jan 22:40:25 22:44:17 34° 70° (ENE) 22:48:14 437.525
QB50P2 31 Jan 22:45:37 22:49:54 61° 101° (E) 22:54:09 145.880/145.840
ANTELSAT 31 Jan 22:46:15 22:50:43 79° 283° (WNW) 22:55:03 437.575/2403.000
BUGSAT 1 31 Jan 22:50:59 22:55:12 52° 100° (E) 22:59:24 437.445
ESTCUBE 1 31 Jan 22:51:14 22:55:29 41° 262° (W) 22:59:45 437.505/2401.250
TIGRISAT 31 Jan 22:52:21 22:56:47 70° 286° (WNW) 23:01:05 435.000
QB50P1 31 Jan 22:53:55 22:58:15 75° 102° (ESE) 23:02:31 145.935-145.965
CUBEBUG 1 31 Jan 23:06:27 23:10:19 30° 264° (W) 23:14:11 437.445
TISAT 1 31 Jan 23:07:26 23:11:39 66° 75° (ENE) 23:15:55 437.305
VELOX 1 31 Jan 23:08:50 23:11:01 13° 271° (W) 23:12:56 145.980
POLYITAN 1 31 Jan 23:10:40 23:14:59 71° 285° (WNW) 23:19:14 437.675
SWISSCUBE 31 Jan 23:15:13 23:17:56 16° 63° (ENE) 23:20:52 437.505
POPSAT HIP 1 31 Jan 23:29:18 23:33:26 44° 288° (WNW) 23:37:31 437.405
BEESAT 31 Jan 23:29:43 23:33:05 20° 65° (ENE) 23:36:36 436.000
DUCHIFAT 1 31 Jan 23:30:16 23:34:22 44° 288° (WNW) 23:38:26 145.980
ITUPSAT 1 31 Jan 23:35:10 23:38:45 22° 66° (ENE) 23:42:28 437.325
ISS 31 Jan 23:38:18 23:40:24 16° 356° (N) 23:42:29 145.825
UNISAT 6 31 Jan 23:47:43 23:50:55 19° 294° (WNW) 23:53:57 437.425
NANOSAT C BR1 01 Feb 00:06:20 00:09:29 19° 293° (WNW) 00:12:29 145.865
SPROUT 01 Feb 00:17:06 00:20:30 22° 267° (W) 00:23:49 437.525
QB50P2 01 Feb 00:23:11 00:25:22 13° 296° (WNW) 00:27:22 145.880/145.840
BUGSAT 1 01 Feb 00:27:45 00:30:19 15° 295° (WNW) 00:32:44 437.445
GONETS M04 01 Feb 00:29:06 00:37:33 57° 92° (E) 00:46:03
STARS 01 Feb 00:30:53 00:31:43 11° 61° (ENE) 00:32:48 437.465
QB50P1 01 Feb 00:32:12 00:33:36 11° 298° (WNW) 00:34:47 145.935-145.965
O/OREOS (USA 219) 01 Feb 00:33:35 00:37:44 33° 59° (ENE) 00:41:55 437.305
KKS-1 01 Feb 00:41:05 00:44:20 21° 66° (ENE) 00:47:43 437.445
TISAT 1 01 Feb 00:46:52 00:48:02 11° 272° (W) 00:48:56 437.305
SWISSCUBE 01 Feb 00:50:40 00:55:23 61° 259° (W) 01:00:07 437.505
Oscar 19 01 Feb 01:04:14 01:09:10 46° 98° (E) 01:14:06 437.125/150
Gurwin Techsat 1B 01 Feb 01:04:22 01:05:21 11° 85° (E) 01:06:42 435.225
BEESAT 01 Feb 01:06:05 01:10:40 46° 261° (W) 01:15:15 436.000
ITUPSAT 1 01 Feb 01:11:56 01:16:26 41° 262° (W) 01:20:57 437.325
ISS 01 Feb 01:15:10 01:17:45 21° 16° (NNE) 01:20:22 145.825
BEESAT 2 01 Feb 01:24:59 01:29:04 72° 121° (ESE) 01:33:15 435.950
ITAMSAT 1 01 Feb 01:27:10 01:31:31 27° 94° (E) 01:35:56 435.822/435.867
BEESAT 3 01 Feb 01:36:04 01:40:11 77° 303° (WNW) 01:44:21 437.485
AIST 2 01 Feb 01:36:19 01:40:15 38° 117° (ESE) 01:44:16 435.215
CUSAT 1 01 Feb 01:46:31 01:50:11 14° 80° (E) 01:54:23 437.405
M-CUBED/EXP-1 PRIME 01 Feb 01:47:14 01:50:54 40° 68° (ENE) 01:54:21 437.505
PCSat 01 Feb 01:58:10 01:59:13 11° 103° (ESE) 02:00:38 145.827
STARS 01 Feb 02:03:08 02:07:36 85° 257° (WSW) 02:12:06 437.465
O/OREOS (USA 219) 01 Feb 02:13:13 02:17:04 26° 256° (WSW) 02:20:48 437.305
KKS-1 01 Feb 02:16:31 02:20:46 40° 262° (W) 02:25:01 437.445
AUBIESAT-1 01 Feb 02:17:41 02:21:36 86° 66° (ENE) 02:25:14 437.475
HORYU 2 01 Feb 02:22:43 02:25:38 17° 91° (E) 02:28:41 437.375
GONETS M04 01 Feb 02:27:12 02:34:56 32° 292° (WNW) 02:42:28
RS-15 01 Feb 02:33:53 02:41:17 23° 103° (ESE) 02:49:16 29.354- 29.394
Gurwin Techsat 1B 01 Feb 02:40:51 02:46:13 89° 96° (E) 02:51:33 435.225
MOZHAYETS 4 01 Feb 02:41:50 02:44:34 16° 65° (ENE) 02:47:26
Oscar 19 01 Feb 02:44:16 02:48:16 23° 295° (WNW) 02:52:09 437.125/150
ISS 01 Feb 02:51:18 02:54:37 86° 34° (NE) 02:57:55 145.825
BEESAT 2 01 Feb 03:05:13 03:07:49 16° 320° (NW) 03:10:20 435.950
ITAMSAT 1 01 Feb 03:06:17 03:11:09 39° 291° (WNW) 03:15:57 435.822/435.867
DANDE 01 Feb 03:11:04 03:19:01 50° 92° (E) 03:27:12 436.750
AIST 2 01 Feb 03:15:26 03:19:01 25° 315° (NW) 03:22:34 435.215
BEESAT 3 01 Feb 03:17:27 03:19:06 12° 324° (NW) 03:20:37 437.485
AO-7 01 Feb 03:17:33 03:24:54 35° 96° (E) 03:32:21 29.400- 29.500
M-CUBED/EXP-1 PRIME 01 Feb 03:23:45 03:26:04 15° 262° (W) 03:28:08 437.505
CUSAT 1 01 Feb 03:23:51 03:32:07 68° 96° (E) 03:40:19 437.405
PCSat 01 Feb 03:36:30 03:41:55 84° 119° (ESE) 03:47:23 145.827
HORYU 2 01 Feb 03:58:21 04:02:36 44° 288° (WNW) 04:06:47 437.375
MOZHAYETS 4 01 Feb 04:16:55 04:21:25 55° 260° (W) 04:25:56
Gurwin Techsat 1B 01 Feb 04:22:59 04:25:32 13° 300° (WNW) 04:27:50 435.225
STRAND 1 01 Feb 04:26:08 04:28:25 13° 60° (ENE) 04:30:58 437.568
ISS 01 Feb 04:29:35 04:30:41 11° 230° (SW) 04:31:40 145.825
JAS-2 01 Feb 04:31:15 04:37:01 64° 101° (ESE) 04:43:32 435.910
YUBILEINY 01 Feb 04:36:28 04:42:42 22° 61° (ENE) 04:49:19 435.215
RS-15 01 Feb 04:41:24 04:52:21 89° 296° (WNW) 05:03:28 29.354- 29.394
CUBESAT XI-V 01 Feb 04:42:05 04:45:32 22° 67° (ENE) 04:49:07 437.345
DANDE 01 Feb 04:54:41 05:02:41 42° 290° (WNW) 05:10:37 436.750
PRISM 01 Feb 05:03:07 05:07:04 48° 72° (ENE) 05:11:03 437.425
CUSAT 1 01 Feb 05:08:29 05:15:46 30° 294° (WNW) 05:22:42 437.405
AO-7 01 Feb 05:10:00 05:18:04 55° 295° (WNW) 05:26:02 29.400- 29.500
PCSat 01 Feb 05:22:19 05:26:05 18° 319° (NW) 05:29:45 145.827
Cubesat XI-IV 01 Feb 05:33:14 05:37:59 32° 95° (E) 05:42:47 437.490
CUTE-I 01 Feb 05:52:02 05:57:12 46° 99° (E) 06:02:22 437.470
VERMONT LUNAR 01 Feb 05:55:35 05:55:54 10° 147° (SSE) 05:56:20 437.305
STRAND 1 01 Feb 06:01:54 06:07:00 83° 256° (WSW) 06:12:10 437.568
JAS-2 01 Feb 06:17:35 06:21:51 21° 295° (WNW) 06:26:13 435.910
CUBESAT XI-V 01 Feb 06:18:28 06:22:47 39° 263° (W) 06:27:07 437.345
YUBILEINY 01 Feb 06:32:00 06:40:50 84° 264° (W) 06:49:39 435.215
PRISM 01 Feb 06:40:42 06:42:56 14° 270° (W) 06:45:00 437.425
RS-15 01 Feb 06:56:51 07:06:27 33° 330° (NNW) 07:16:05 29.354- 29.394
AO-7 01 Feb 07:05:33 07:09:11 13° 316° (NW) 07:12:24 29.400- 29.500
PHONESAT 2.4 01 Feb 07:10:53 07:13:33 20° 153° (SSE) 07:16:17 2401.200-2431.200
Cubesat XI-IV 01 Feb 07:13:15 07:18:07 35° 292° (WNW) 07:22:54 437.490
VERMONT LUNAR 01 Feb 07:30:13 07:33:26 36° 161° (SSE) 07:36:41 437.305
CUTE-I 01 Feb 07:32:42 07:37:02 25° 295° (WNW) 07:41:15 437.470
HO-68 01 Feb 07:32:52 07:37:51 21° 90° (E) 07:43:06 435.675
COMPASS 1 01 Feb 07:49:22 07:50:29 11° 88° (E) 07:51:52 437.405
SO-50 01 Feb 08:00:34 08:01:35 11° 108° (ESE) 08:02:53 436.795
DOVE 4 01 Feb 08:03:51 08:07:33 20° 89° (E) 08:11:15 437.250
GOMX 1 01 Feb 08:06:14 08:10:55 31° 93° (E) 08:15:28 467.674
CANX-2 01 Feb 08:11:17 08:15:04 32° 96° (E) 08:18:52 2200.000
AAUSAT CUBESAT 2 01 Feb 08:11:45 08:14:34 18° 92° (E) 08:17:29 437.432
ANTELSAT 01 Feb 08:12:22 08:13:43 11° 62° (ENE) 08:15:19 437.575/2403.000
TIGRISAT 01 Feb 08:17:35 08:19:28 13° 63° (ENE) 08:21:35 435.000
BEESAT 3 01 Feb 08:19:09 08:20:27 11° 35° (NE) 08:21:55 437.485
BRITE-PL 01 Feb 08:26:51 08:32:31 69° 100° (E) 08:37:52 437.365/2234.400
YUBILEINY 01 Feb 08:31:18 08:36:29 16° 282° (WNW) 08:41:07 435.215
CUTE 1.7 + AOD 2 01 Feb 08:34:43 08:38:52 53° 99° (E) 08:42:59 437.475
Oscar 11 01 Feb 08:48:11 08:51:34 23° 93° (E) 08:55:01 145.826/435.025
PHONESAT 2.4 01 Feb 08:48:12 08:51:43 55° 168° (SSE) 08:55:17 2401.200-2431.200
POPSAT HIP 1 01 Feb 08:48:49 08:51:04 14° 64° (ENE) 08:53:28 437.405
DUCHIFAT 1 01 Feb 08:49:31 08:51:44 14° 64° (ENE) 08:54:08 145.980
UWE-3 01 Feb 08:51:14 08:53:40 15° 89° (E) 08:56:15 435.000/436.395/437.385
SEEDS 01 Feb 09:00:43 09:04:57 89° 284° (WNW) 09:09:07 437.485
CINEMA 3 01 Feb 09:03:14 09:07:48 43° 97° (E) 09:12:10 145.822/145.860
VERMONT LUNAR 01 Feb 09:07:52 09:11:21 69° 176° (S) 09:14:49 437.305
UNISAT 6 01 Feb 09:09:19 09:13:42 41° 72° (ENE) 09:18:07 437.425
RS-15 01 Feb 09:15:28 09:23:32 22° 4° (N) 09:31:51 29.354- 29.394
HO-68 01 Feb 09:19:11 09:26:21 74° 289° (WNW) 09:33:29 435.675
VELOX 1 01 Feb 09:22:23 09:23:40 11° 88° (E) 09:25:13 145.980
COMPASS 1 01 Feb 09:22:36 09:26:43 61° 286° (WNW) 09:30:48 437.405
DELFI C3 01 Feb 09:22:50 09:26:42 43° 98° (E) 09:30:34 145.870
NANOSAT C BR1 01 Feb 09:23:07 09:26:53 32° 70° (ENE) 09:30:44 145.865
HUMSAT D 01 Feb 09:24:47 09:27:05 15° 90° (E) 09:29:33 437.325/437.525
UKube-1 01 Feb 09:25:04 09:28:56 30° 96° (E) 09:32:49 .
SO-50 01 Feb 09:36:54 09:41:28 84° 302° (WNW) 09:46:15 436.795
QB50P2 01 Feb 09:39:00 09:43:07 48° 73° (ENE) 09:47:18 145.880/145.840
DOVE 4 01 Feb 09:40:41 09:45:41 47° 288° (WNW) 09:50:21 437.250
BUGSAT 1 01 Feb 09:41:45 09:45:33 38° 71° (ENE) 09:49:27 437.445
GOMX 1 01 Feb 09:44:11 09:49:04 35° 292° (WNW) 09:53:39 467.674
BEESAT 2 01 Feb 09:44:35 09:48:40 50° 53° (NE) 09:52:41 435.950
ANTELSAT 01 Feb 09:45:12 09:49:56 86° 257° (WSW) 09:54:38 437.575/2403.000
ZACube-1 01 Feb 09:46:16 09:50:32 48° 98° (E) 09:54:42 437.345
AAUSAT CUBESAT 2 01 Feb 09:46:34 09:50:25 37° 289° (WNW) 09:54:13 437.432
QB50P1 01 Feb 09:47:02 09:51:14 58° 74° (ENE) 09:55:29 145.935-145.965
CANX-2 01 Feb 09:47:34 09:50:54 22° 292° (WNW) 09:54:07 2200.000
DX 1 01 Feb 09:49:33 09:53:55 60° 101° (E) 09:58:16 434.975-435.025
TIGRISAT 01 Feb 09:50:58 09:55:41 78° 258° (WSW) 10:00:23 435.000
CUBEBUG 2 01 Feb 09:53:09 09:57:44 84° 102° (ESE) 10:02:06 437.445
BEESAT 3 01 Feb 09:55:14 09:59:25 73° 56° (NE) 10:03:31 437.485
FUNcube-1 01 Feb 09:57:01 10:01:24 63° 100° (E) 10:05:38 145.935
AIST 2 01 Feb 09:57:51 10:01:41 31° 48° (NE) 10:05:31 435.215
POLYITAN 1 01 Feb 10:03:59 10:08:18 89° 255° (WSW) 10:12:40 437.675
50 SAT 01 Feb 10:04:52 10:08:25 29° 96° (E) 10:11:57 437.505
BRITE-PL 01 Feb 10:06:35 10:10:27 19° 298° (WNW) 10:14:00 437.365/2234.400
CUTE 1.7 + AOD 2 01 Feb 10:12:05 10:14:24 14° 295° (WNW) 10:16:35 437.475
AIST 1 01 Feb 10:19:53 10:23:51 40° 93° (E) 10:27:53
POPSAT HIP 1 01 Feb 10:22:20 10:26:33 56° 260° (W) 10:30:48 437.405
DUCHIFAT 1 01 Feb 10:22:59 10:27:11 56° 260° (W) 10:31:25 145.980
Oscar 11 01 Feb 10:23:59 10:27:50 32° 290° (WNW) 10:31:37 145.826/435.025
UWE-3 01 Feb 10:26:17 10:30:40 51° 287° (WNW) 10:34:50 435.000/436.395/437.385
PHONESAT 2.4 01 Feb 10:26:34 10:30:10 68° 185° (S) 10:33:47 2401.200-2431.200
AISAT 01 Feb 10:29:51 10:34:21 63° 101° (E) 10:38:50 437.250
GONETS M04 01 Feb 10:39:11 10:46:20 29° 66° (ENE) 10:53:42
CINEMA 3 01 Feb 10:41:05 10:44:43 21° 295° (WNW) 10:48:08 145.822/145.860
PCSat 01 Feb 10:42:12 10:45:02 14° 37° (NE) 10:48:02 145.827
ESTCUBE 1 01 Feb 10:43:30 10:47:44 38° 97° (E) 10:52:00 437.505/2401.250
VERMONT LUNAR 01 Feb 10:45:55 10:49:18 48° 195° (SSW) 10:52:42 437.305
UNISAT 6 01 Feb 10:47:03 10:50:41 21° 268° (W) 10:54:12 437.425
CUBEBUG 1 01 Feb 10:54:30 10:58:48 47° 99° (E) 11:03:06 437.445
TISAT 1 01 Feb 10:54:58 10:55:34 10° 87° (E) 10:56:27 437.305
VELOX 1 01 Feb 10:56:20 11:00:50 70° 285° (WNW) 11:05:18 145.980
DELFI C3 01 Feb 10:59:08 11:01:39 16° 294° (WNW) 11:04:02 145.870
HUMSAT D 01 Feb 10:59:10 11:03:14 46° 287° (WNW) 11:07:13 437.325/437.525
NANOSAT C BR1 01 Feb 10:59:24 11:02:50 23° 267° (W) 11:06:13 145.865
UKube-1 01 Feb 11:01:24 11:05:01 25° 292° (WNW) 11:08:32 .
HO-68 01 Feb 11:09:01 11:13:02 16° 307° (NW) 11:16:43 435.675
QB50P2 01 Feb 11:16:46 11:19:23 15° 270° (W) 11:21:50 145.880/145.840
BUGSAT 1 01 Feb 11:18:23 11:21:16 18° 269° (W) 11:24:04 437.445
SO-50 01 Feb 11:20:03 11:22:51 15° 325° (NW) 11:25:35 436.795
ZACube-1 01 Feb 11:23:43 11:26:34 17° 295° (WNW) 11:29:14 437.345
BEESAT 2 01 Feb 11:23:53 11:26:32 16° 249° (WSW) 11:29:02 435.950
QB50P1 01 Feb 11:25:39 11:27:36 12° 272° (W) 11:29:20 145.935-145.965
DX 1 01 Feb 11:27:19 11:29:44 14° 297° (WNW) 11:31:59 434.975-435.025
RS-15 01 Feb 11:29:50 11:40:10 40° 37° (NE) 11:51:04 29.354- 29.394
CUBEBUG 2 01 Feb 11:32:37 11:33:47 11° 299° (WNW) 11:34:42 437.445
FUNcube-1 01 Feb 11:35:06 11:37:16 13° 297° (WNW) 11:39:13 145.935
BEESAT 3 01 Feb 11:35:59 11:37:02 11° 251° (WSW) 11:37:51 437.485
AIST 2 01 Feb 11:36:34 11:40:16 28° 246° (WSW) 11:43:52 435.215
50 SAT 01 Feb 11:40:15 11:43:24 22° 292° (WNW) 11:46:27 437.505
AIST 1 01 Feb 11:58:58 12:01:48 17° 291° (WNW) 12:04:30
